EW2112 Weather Reports


Display with metric or nautical units.
time (UTC)temp
F
wind
direction
speed
MPH
gust
MPH
rain 1hr
in
rain 24hr
in
rain mn
in
humidity
%
barometer
mb
20260905164557 65 234 1.0 7.0 0.00 0.00 0.00 46 1007.2
20260905163056 65 269 3.0 6.0 0.00 0.00 0.00 46 1007.3
20260905161556 66 261 0.0 7.0 0.00 0.00 0.00 45 1007.2
20260905160054 67 229 3.0 9.0 0.00 0.00 0.00 44 1007.4
20260905154557 67 246 4.0 13.0 0.00 0.00 0.00 45 1007.5
20260905153051 69 208 6.0 20.0 0.00 0.00 0.00 50 1007.1
20260905151550 69 261 2.0 10.0 0.00 0.00 0.00 50 1006.8
20260905150048 70 240 3.0 11.0 0.00 0.00 0.00 50 1006.4
20260905144545 70 339 5.0 12.0 0.00 0.00 0.00 50 1006.2
20260905143048 69 288 6.0 14.0 0.00 0.00 0.00 53 1005.9
20260905141538 65 319 2.0 5.0 0.00 0.00 0.00 65 1005.8
20260905140033 67 207 1.0 3.0 0.00 0.00 0.00 61 1005.6
20260905134536 69 247 0.0 3.0 0.00 0.00 0.00 57 1005.5
20260905133032 70 292 1.0 10.0 0.00 0.00 0.00 55 1005.2
20260905131529 69 279 2.0 8.0 0.00 0.00 0.00 57 1005.2
20260905130029 68 297 1.0 5.0 0.00 0.00 0.00 60 1005.1
20260905124537 69 326 1.0 5.0 0.00 0.00 0.00 61 1004.9
20260905123028 69 355 2.0 6.0 0.00 0.00 0.00 60 1004.9
20260905121527 69 307 4.0 9.0 0.00 0.00 0.00 62 1004.8
20260905120027 69 355 3.0 6.0 0.00 0.00 0.00 63 1004.8
20260905114528 69 22 3.0 9.0 0.00 0.00 0.00 62 1004.9
20260905113025 70 19 3.0 11.0 0.00 0.00 0.00 62 1004.9
20260905111525 70 25 3.0 9.0 0.00 0.00 0.00 62 1005.0
20260905110025 70 16 3.0 10.0 0.00 0.00 0.00 63 1004.8
20260905104523 70 26 4.0 11.0 0.00 0.00 0.00 62 1004.7
20260905103024 70 49 3.0 8.0 0.00 0.00 0.00 62 1004.7
20260905101526 71 40 4.0 10.0 0.00 0.00 0.00 61 1004.7
20260905100023 71 32 5.0 12.0 0.00 0.00 0.00 60 1004.5
20260905094524 72 10 5.0 11.0 0.00 0.00 0.00 58 1004.5
20260905093022 72 5 7.0 14.0 0.00 0.00 0.00 57 1004.4
20260905091521 73 5 7.0 15.0 0.00 0.00 0.00 54 1004.4
20260905090121 73 360 7.0 13.0 0.00 0.00 0.00 53 1004.2
20260905084520 73 342 7.0 18.0 0.00 0.00 0.00 52 1004.2
20260905083024 74 284 8.0 17.0 0.00 0.00 0.00 51 1004.1
20260905081521 74 355 7.0 20.0 0.00 0.00 0.00 51 1004.7
20260905080019 72 317 7.0 15.0 0.00 0.00 0.00 57 1005.3
20260905074527 72 347 5.0 13.0 0.00 0.00 0.00 58 1005.8
20260905073018 72 284 5.0 12.0 0.00 0.00 0.00 59 1006.1
20260905071518 72 343 7.0 14.0 0.00 0.00 0.00 59 1006.3
20260905070017 72 321 6.0 14.0 0.00 0.00 0.00 60 1006.2
20260905064516 72 292 5.0 15.0 0.00 0.00 0.00 61 1005.4
20260905063015 72 301 11.0 23.0 0.00 0.00 0.00 60 1005.2
20260905061515 77 284 10.0 52.0 0.00 0.00 0.00 53 1005.2
20260905060014 87 264 8.0 22.0 0.00 0.00 0.00 28 1003.3
20260905054512 88 301 7.0 18.0 0.00 0.00 0.00 27 1002.7
20260905053009 88 290 6.0 17.0 0.00 0.00 0.00 27 1002.0
20260905051511 90 275 9.0 21.0 0.00 0.00 0.00 26 1001.8
20260905050008 91 302 9.0 24.0 0.00 0.00 0.00 25 1001.7
20260905044505 90 329 4.0 21.0 0.00 0.00 0.00 27 1001.7
20260905043002 91 313 9.0 21.0 0.00 0.00 0.00 25 1001.7
20260905041601 91 300 13.0 26.0 0.00 0.00 0.00 25 1002.0
20260905040057 91 302 7.0 18.0 0.00 0.00 0.00 27 1002.1
20260905034552 90 331 5.0 19.0 0.00 0.00 0.00 29 1002.1
20260905033048 89 326 10.0 22.0 0.00 0.00 0.00 29 1002.4
20260905031544 88 347 10.0 22.0 0.00 0.00 0.00 30 1002.8
20260905030045 86 5 6.0 18.0 0.00 0.00 0.00 32 1003.5
20260905024534 85 49 12.0 19.0 0.00 0.00 0.00 32 1004.1
20260905023030 84 348 11.0 22.0 0.00 0.00 0.00 33 1004.6
20260905021526 83 41 9.0 19.0 0.00 0.00 0.00 34 1005.2
20260905020026 82 336 8.0 21.0 0.00 0.00 0.00 35 1005.9
20260905014518 82 105 8.0 18.0 0.00 0.00 0.00 36 1006.3
20260905013018 81 22 9.0 18.0 0.00 0.00 0.00 35 1006.7
20260905011514 81 323 9.0 17.0 0.00 0.00 0.00 36 1007.0
20260905010007 80 38 5.0 18.0 0.00 0.00 0.00 38 1007.5
20260905004503 79 301 8.0 13.0 0.00 0.00 0.00 37 1008.0
20260905003059 78 286 8.0 14.0 0.00 0.00 0.00 38 1008.3
20260905001555 77 334 6.0 15.0 0.00 0.00 0.00 41 1008.9
20260905000051 75 331 5.0 10.0 0.00 0.00 0.00 44 1009.3
20260904234546 73 21 6.0 14.0 0.00 0.00 0.00 44 1009.7
20260904233042 72 12 10.0 20.0 0.00 0.00 0.00 45 1010.1
20260904231540 71 19 8.0 15.0 0.00 0.00 0.00 46 1010.5
20260904230058 70 360 9.0 19.0 0.00 0.00 0.00 47 1010.9
20260904224532 69 17 8.0 15.0 0.00 0.00 0.00 49 1010.8
20260904223027 68 5 6.0 14.0 0.00 0.00 0.00 51 1011.2
20260904221524 67 21 7.0 15.0 0.00 0.00 0.00 51 1011.7
20260904220022 66 355 4.0 10.0 0.00 0.00 0.00 53 1012.0
20260904214521 65 334 5.0 10.0 0.00 0.00 0.00 54 1011.8
20260904213016 64 348 3.0 8.0 0.00 0.00 0.00 55 1011.8
20260904211507 63 5 3.0 9.0 0.00 0.00 0.00 57 1011.8
20260904210004 62 319 3.0 6.0 0.00 0.00 0.00 59 1011.9
20260904204503 61 350 2.0 6.0 0.00 0.00 0.00 60 1011.9
20260904203103 61 360 2.0 5.0 0.00 0.00 0.00 60 1011.8
20260904201558 61 345 2.0 8.0 0.00 0.00 0.00 61 1011.8
20260904200059 60 342 3.0 9.0 0.00 0.00 0.00 62 1011.7
20260904194606 61 9 3.0 8.0 0.00 0.00 0.00 62 1011.7
20260904193055 61 329 4.0 8.0 0.00 0.00 0.00 62 1011.7
20260904191554 61 345 5.0 10.0 0.00 0.00 0.00 62 1011.5
20260904190056 61 355 6.0 10.0 0.00 0.00 0.00 63 1011.6
20260904184552 61 325 3.0 10.0 0.00 0.00 0.00 64 1011.7
20260904183109 61 13 3.0 6.0 0.00 0.00 0.00 65 1011.9
20260904181550 61 11 3.0 5.0 0.00 0.00 0.00 65 1012.0
20260904180050 61 344 3.0 6.0 0.00 0.00 0.00 64 1011.9
20260904174548 62 341 4.0 11.0 0.00 0.00 0.00 63 1011.8
20260904173046 62 9 6.0 12.0 0.00 0.00 0.00 63 1011.8
20260904171546 61 9 2.0 6.0 0.00 0.00 0.00 63 1011.7
20260904170042 61 345 2.0 8.0 0.00 0.00 0.00 64 1012.0